Location: Newark
(0.5300°S, 127.4800°E)
Time: 21:49:25
(UTC+00:00)

Altair - Visible Passes

Search period start: 23 October 2019 00:00
Search period end: 02 November 2019 00:00
Orbit: 1501 x 1682 km, 47.2° (Epoch: 22 October)

Date Brightness Start Highest point End Pass type
(mag) Time Alt. Az. Time Alt. Az. Time Alt. Az.
23 Oct 7.8 09:46:58 10° NNW 09:56:43 51° NE 10:06:22 10° ESE visible
23 Oct 8.7 11:52:26 10° WNW 12:01:25 36° SW 12:10:18 10° SSE visible
23 Oct 9.7 20:34:55 10° S 20:41:12 20° SE 20:47:28 10° E visible
24 Oct 7.9 09:21:58 10° NNW 09:31:31 46° NE 09:40:58 10° ESE visible
24 Oct 8.6 11:26:55 10° WNW 11:36:12 41° SW 11:45:22 10° SSE visible
24 Oct 9.7 20:10:21 10° S 20:15:59 17° SE 20:21:34 10° E visible
25 Oct 8.5 11:01:28 10° WNW 11:10:59 46° SW 11:20:25 10° SSE visible
25 Oct 9.8 19:45:55 10° SSE 19:50:44 15° SE 19:55:31 10° ESE visible
26 Oct 8.4 10:36:03 10° WNW 10:45:47 51° SW 10:55:25 10° SSE visible
26 Oct 9.9 19:21:42 10° SSE 19:25:28 13° SE 19:29:12 10° ESE visible
27 Oct 8.3 10:10:41 10° NW 10:20:34 57° SW 10:30:23 10° SSE visible
27 Oct 10.0 18:58:05 10° SSE 19:00:11 11° SE 19:02:17 10° ESE visible
28 Oct 8.2 09:45:22 10° NW 09:55:22 64° SW 10:05:19 10° SSE visible
28 Oct 10.0 11:58:09 10° WSW 12:00:48 11° SW 12:03:27 10° SSW visible
28 Oct 8.1 20:31:09 10° SSW 20:40:11 60° SE 20:49:11 10° NE visible
29 Oct 8.1 09:20:04 10° NW 09:30:10 71° SW 09:40:14 10° SSE visible
29 Oct 10.0 11:31:10 10° WSW 11:35:28 13° SW 11:39:45 10° SSW visible
29 Oct 8.2 20:06:08 10° SSW 20:15:03 54° SE 20:23:54 10° NE visible
30 Oct 9.9 11:04:46 10° WSW 11:10:09 15° SW 11:15:31 10° SSW visible
30 Oct 8.3 19:41:08 10° SSW 19:49:54 48° SE 19:58:34 10° ENE visible
31 Oct 9.9 10:38:37 10° W 10:44:50 18° SW 10:51:04 10° S visible
31 Oct 8.5 19:16:10 10° SSW 19:24:44 42° SE 19:33:12 10° ENE visible
01 Nov 9.8 10:12:38 10° W 10:19:33 20° SW 10:26:29 10° S visible
01 Nov 8.6 18:51:13 10° SSW 18:59:35 37° SE 19:07:47 10° ENE visible
